Regional Weather Roundup
Issued by NWS Midland/Odessa, TX

Skip options and go directly to product.
Home | Oldest Version | Previous Version | Current Version | All | Text Only | Save Text | Print | Product List | Glossary Off

Skip product version selection by date and time.   

790
ASUS44 KMAF 160410
RWRMAF
MIDLAND AREA WEATHER ROUNDUP
NATIONAL WEATHER SERVICE MIDLAND TX
1100 PM CDT TUE APR 15 2014

...IN SOUTHWEST TEXAS AND SOUTHEAST NEW MEXICO...

CITY           SKY/WX    TMP DP  RH WIND       PRES   REMARKS
ALPINE         CLEAR     53  12  19 S9        30.08F
ANDREWS        FAIR      52   7  16 S12       29.99S
ARTESIA        MOCLDY    55   7  14 S12       29.94S
BIG SPRING     CLEAR     56  12  17 SE15      30.03F
CARLSBAD       PTCLDY    54   2  12 S9        29.95R
DRYDEN           N/A     53  13  20 NE5       30.04S
FORT STOCKTON  PTCLDY    55  12  18 SE18G28   30.00S
GUAD PASS      MOCLDY    57  -3   8 S9        30.04S
HOBBS          MOCLDY    54   1  12 S14       29.99S
MARFA          CLEAR     46   5  18 SE5       30.06F
MIDLAND AIRPK  PTCLDY    56   7  14 S14       30.01S
MIDLAND INTL   PTCLDY    54  10  17 S15       30.00F
ODESSA         CLEAR     56   6  13 S17       30.01S
PECOS          PTCLDY    58  14  17 E15       29.95F
PRESIDIO       FAIR      65  14  13 NE8       29.94F
SEMINOLE       PTCLDY    50   7  17 S7        29.99F
SNYDER         CLEAR     53   8  16 SE12      30.01F
WINK           PTCLDY    58   7  13 SE15      29.97S
$$
...OTHER STATIONS IN TEXAS...

CITY           SKY/WX    TMP DP  RH WIND       PRES   REMARKS
ABILENE        CLEAR     52  16  24 SE13      30.04F
AMARILLO       MOCLDY    55   7  14 S26G33    29.89S
AUSTIN         CLEAR     40  37  89 CALM      30.17R
BROWNSVILLE    CLEAR     51  41  68 E7        30.20F
CORPUS CHRISTI CLEAR     50  38  63 S9        30.19R
DALLAS FTW     CLEAR     50  30  46 S9        30.12F
DEL RIO        CLEAR     59  18  20 SE10      30.08R
EL PASO        MOCLDY    62   4  10 CALM      29.94S
HOUSTON INT    CLEAR     46  37  71 CALM      30.17F
LUBBOCK        CLOUDY    55   8  15 S17       29.96F
SAN ANGELO     CLEAR     48  13  24 S7        30.05F
SAN ANTONIO    CLEAR     51  27  39 SE7       30.15S
WACO           CLEAR     46  33  60 SE5       30.16S
WICHITA FALLS  NOT AVBL
$$
...OTHER LOCATIONS IN NEW MEXICO...

CITY           SKY/WX    TMP DP  RH WIND       PRES   REMARKS
ALAMAGORDO     MOCLDY    59   7  12 SE8       29.96S
ALBUQUERQUE    PTCLDY    58   7  13 S18G24    29.92S
CANNON AFB     CLOUDY    55   4  12 S16       29.91S
CLOVIS         CLOUDY    54   9  16 S13       29.94S
HOLLOMAN AFB   MOCLDY    61   6  11 SE10      29.94F
ROSWELL        PTCLDY    58   7  13 S16       29.92R
RUIDOSO        PTCLDY    50   3  14 SW22G29   30.02S
SANTA FE       PTCLDY    49  10  20 W3        29.95R
TRUTH OR CONSE PTCLDY    59   9  13 S8        29.95R
TUCUMCARI      MOCLDY    59   8  13 SW23G33   29.83R
$$

USA.gov is the U.S. government's official web portal to all federal, state and local government web resources and services.